Wind_Speed
22 21 20 19 20 20 20 20 21 22 24 27 29 29 29 29 29 29 29 28 26 24 24 23 21 20 21 24 25 26 29 31 30 31 29 26 24 24 23 24 25 24 23 24 24 23 22 22 21 21 21 20 19 18 17 17 18 18 18 18 18 17 16 15 12 9 10 12 13 13 16 19 20 19 18 19 20 21 22 20 21 24 23 23 26
23 22 21 20 20 21 21 21 22 23 24 26 29 30 30 29 30 29 29 28 27 25 25 23 22 21 21 23 25 26 29 30 28 29 29 27 25 24 25 26 26 25 24 24 25 24 23 23 22 22 22 22 21 19 18 19 19 19 19 19 19 18 17 17 14 12 11 12 13 14 16 19 20 21 21 19 18 21 23 20 18 23 25 23 23
25 25 23 22 21 21 21 21 22 23 24 26 29 31 31 30 30 31 30 28 27 26 25 24 22 22 22 22 24 26 27 29 29 29 28 27 26 25 25 26 27 26 26 26 26 25 23 23 23 23 22 22 22 21 20 20 19 20 20 19 19 18 18 17 16 14 13 14 14 15 17 20 21 21 22 21 18 19 23 22 17 19 25 24 21
27 27 27 26 24 23 23 23 22 24 25 26 28 31 32 31 31 32 31 29 28 26 24 25 24 22 22 22 23 25 26 27 31 32 31 28 28 27 27 27 27 26 26 26 26 26 25 24 24 24 24 23 23 22 21 20 20 20 20 19 19 19 18 18 18 16 14 14 15 16 19 22 22 20 21 23 21 20 21 22 19 18 22 23 21
27 28 29 29 28 26 25 24 24 25 26 27 28 30 31 31 31 32 31 30 30 27 24 24 24 23 24 23 23 25 26 28 31 32 31 29 28 28 28 28 28 27 26 27 27 26 25 25 25 25 26 25 24 23 22 21 21 20 20 20 19 19 18 18 19 18 16 14 15 17 18 21 22 21 22 23 23 22 21 21 20 20 22 23 22
28 28 29 30 30 28 27 25 25 26 26 27 27 28 30 31 31 32 30 30 30 28 25 25 25 24 24 24 23 24 25 29 33 33 31 29 28 28 28 28 28 27 27 26 27 27 26 26 25 25 26 27 25 24 23 22 22 21 20 20 19 18 18 19 19 18 18 16 15 17 18 19 20 22 24 23 22 24 24 22 21 22 22 24 24
29 30 30 30 31 30 28 26 26 25 26 27 27 28 30 31 32 32 30 29 29 27 26 26 26 24 24 24 24 24 24 26 31 35 35 33 30 28 27 28 28 27 26 26 26 27 26 27 26 25 26 27 27 25 23 23 23 22 20 20 20 19 18 18 19 18 17 17 16 17 19 20 20 20 23 24 21 22 24 23 22 24 24 25 24
29 30 30 31 32 31 28 26 26 25 25 26 27 29 31 31 33 33 31 30 29 27 28 29 27 25 23 23 23 24 24 24 27 32 33 32 34 33 29 27 27 26 25 24 25 26 26 26 26 26 26 27 27 26 24 23 23 23 21 20 20 20 19 19 19 18 17 17 18 18 18 19 19 19 21 26 24 22 22 22 21 23 25 24 24
30 30 30 31 31 31 29 26 26 25 25 26 27 29 31 33 33 33 31 29 28 28 29 31 30 27 23 22 22 23 24 25 28 32 32 31 33 32 29 28 27 24 23 22 23 25 25 25 26 26 27 28 28 27 26 24 24 24 22 22 22 21 20 20 19 18 17 17 17 18 18 19 20 20 22 26 26 22 21 21 20 21 22 22 22
30 30 30 30 29 30 29 27 26 25 25 26 28 28 31 32 33 33 32 30 28 27 28 31 31 26 22 21 22 21 23 26 29 32 34 34 29 22 19 21 20 19 19 19 21 24 24 24 25 26 28 28 29 30 29 28 27 25 23 24 25 23 22 21 20 19 18 17 17 19 20 19 20 22 22 22 23 22 22 22 21 22 23 22 21
29 30 31 29 29 29 29 27 26 25 25 26 27 28 29 30 31 32 32 30 28 26 26 29 30 25 21 21 22 20 20 23 28 31 33 34 30 22 18 18 18 19 20 19 21 23 24 24 24 26 28 29 30 31 31 31 31 29 27 26 26 26 25 23 22 21 20 19 19 20 21 20 21 23 23 22 22 24 24 23 23 25 24 22 21
26 29 30 29 28 29 28 26 26 25 25 27 27 27 28 29 30 32 30 26 25 25 25 28 29 23 19 20 21 19 18 21 26 30 32 32 30 28 27 25 24 25 23 22 25 25 24 24 24 24 26 28 29 30 31 32 33 32 30 28 29 29 28 26 25 23 22 21 21 22 23 22 22 24 25 24 24 25 26 25 26 27 25 23 22
21 24 27 27 27 28 27 25 26 25 25 26 26 25 25 28 33 33 27 23 23 24 25 26 25 21 18 19 19 19 18 20 23 27 31 33 30 31 32 28 25 25 24 25 29 28 24 23 23 23 24 27 28 28 28 30 33 34 33 31 31 32 33 31 28 25 24 22 21 23 23 23 23 25 27 27 26 26 27 26 26 28 27 26 26
16 18 23 25 25 26 25 24 25 24 24 25 24 23 25 29 34 33 26 22 23 25 26 24 20 18 18 18 18 19 19 20 24 26 28 32 32 32 33 29 24 24 25 26 29 29 25 23 24 23 23 25 26 26 26 27 29 33 34 34 34 34 34 35 33 31 29 27 24 24 23 23 23 24 27 30 29 28 28 28 27 29 30 29 27
15 16 20 23 24 24 24 25 24 23 24 24 22 23 27 29 30 29 25 23 24 24 25 23 19 18 19 18 18 19 18 20 24 25 25 28 31 32 33 33 28 23 25 28 28 28 26 24 24 24 23 24 26 26 27 27 27 28 30 33 33 32 32 35 37 37 36 33 30 27 25 24 24 23 26 29 30 29 27 27 28 28 27 26 24
13 16 18 20 22 23 23 23 22 22 23 23 21 24 28 28 25 25 24 24 26 25 23 22 20 20 20 19 19 18 17 19 24 25 24 26 29 31 33 36 33 25 25 29 28 27 29 27 25 24 23 23 26 28 28 27 27 26 28 30 30 29 30 32 36 38 39 38 34 30 27 25 24 25 25 27 28 27 24 24 25 24 23 22 21
11 12 16 19 20 22 23 22 23 22 22 23 24 25 28 27 25 26 26 27 27 24 22 23 23 22 21 20 19 18 18 20 24 26 26 26 29 32 31 31 30 27 27 30 28 28 31 29 26 25 24 23 26 28 29 28 27 26 26 27 28 28 28 29 32 35 38 39 39 36 32 28 26 26 27 29 29 27 24 23 24 24 22 19 19
15 10 11 17 19 21 22 23 24 24 23 25 25 25 27 27 25 26 27 27 25 24 23 24 23 23 23 22 22 20 20 22 25 28 29 28 29 31 27 24 25 26 27 30 31 31 32 30 28 26 24 24 26 28 30 30 29 27 26 25 26 27 27 26 27 30 33 36 37 38 38 36 32 28 28 30 32 30 29 26 24 24 23 21 21
21 16 11 14 17 20 21 20 18 19 19 18 18 17 18 21 25 27 26 25 24 23 24 24 23 24 25 24 25 24 21 21 25 28 28 28 29 28 24 22 23 25 25 28 31 33 32 29 30 29 26 24 25 26 30 31 30 28 26 26 25 25 26 26 25 26 28 31 34 37 40 42 39 33 30 30 31 33 33 30 26 26 25 24 25
27 23 13 9 8 6 5 3 1 2 3 3 7 7 7 11 14 19 24 26 25 24 24 24 24 26 26 24 26 26 22 20 23 26 27 27 28 27 23 22 24 24 24 25 28 31 30 28 29 31 31 28 25 25 28 32 32 29 27 27 27 26 26 26 25 24 24 26 28 29 33 36 36 33 31 30 32 35 36 34 31 30 28 26 27
28 24 11 5 5 8 9 6 2 1 1 2 7 9 9 13 15 15 16 18 20 21 23 24 25 25 25 24 24 25 24 23 23 25 26 26 27 27 25 24 24 23 23 24 24 26 28 29 28 29 31 32 30 27 27 29 33 33 29 28 27 26 24 22 22 23 23 22 22 23 25 28 29 29 30 31 34 38 40 38 35 33 33 31 29
25 23 17 13 10 10 11 8 5 4 4 3 2 1 4 7 9 12 17 17 14 11 12 16 21 23 23 22 21 22 24 24 24 24 25 26 26 27 27 25 24 23 22 24 25 24 25 26 26 26 29 32 33 33 31 30 32 34 33 29 26 26 24 21 19 21 22 23 23 23 23 25 27 29 31 31 33 37 39 38 36 36 37 37 32
22 20 19 17 15 13 11 9 8 9 7 5 4 4 3 2 4 7 9 11 12 12 13 15 17 19 20 21 20 20 21 23 25 25 25 25 25 27 28 27 26 25 23 23 24 24 24 24 25 25 27 29 32 33 34 35 35 36 35 31 28 27 26 22 20 20 21 22 23 23 23 24 26 28 30 31 32 34 34 34 35 37 39 40 38
20 19 19 17 16 14 11 8 7 7 6 5 4 2 2 2 3 6 5 6 10 14 17 17 16 17 18 17 18 19 19 20 23 26 26 26 26 26 27 27 27 27 25 24 24 24 23 24 24 24 25 27 28 30 33 36 38 38 37 34 32 31 29 25 23 23 21 21 22 23 24 24 25 27 29 30 30 30 30 31 32 36 39 41 41
20 19 18 17 15 13 10 8 7 6 4 3 3 3 3 2 4 7 6 10 14 15 16 15 12 15 21 18 16 19 19 18 20 24 26 26 26 26 26 26 27 28 28 28 27 25 24 23 23 24 26 28 29 29 31 35 37 39 38 36 35 36 33 28 26 26 24 23 23 24 24 24 26 28 29 28 26 27 29 31 29 30 35 38 38
22 20 19 17 15 13 11 9 7 5 4 4 3 3 4 4 6 9 10 13 16 16 17 18 15 17 22 21 17 17 19 18 19 21 23 26 27 27 26 25 24 25 27 29 29 29 30 28 25 24 25 27 30 31 32 34 36 37 37 37 37 38 35 29 27 28 27 25 24 24 24 24 27 29 28 26 25 25 27 28 25 23 27 31 33
22 22 20 19 17 14 12 11 9 5 4 5 5 4 5 6 8 11 13 16 17 18 19 21 21 21 23 21 18 17 18 18 18 19 21 24 25 26 27 27 26 25 26 28 29 31 34 34 33 31 28 26 27 29 31 33 33 34 36 37 39 41 38 32 29 29 28 26 24 23 24 26 28 29 28 25 23 24 26 25 22 21 22 24 26
22 22 20 19 19 16 13 12 10 7 6 6 4 4 6 8 10 14 17 19 22 22 21 21 22 23 22 19 18 19 20 21 22 22 21 22 21 22 25 28 28 27 29 30 27 26 29 31 33 34 32 29 26 26 28 29 30 32 33 32 34 38 39 35 31 29 28 28 27 25 25 26 27 28 27 21 19 23 27 25 22 22 21 19 20
22 21 19 19 19 18 15 15 14 12 12 12 9 8 9 10 11 15 20 23 22 19 18 18 18 19 19 19 19 20 21 21 22 22 22 23 24 23 23 24 24 24 28 29 25 21 21 24 26 28 29 28 26 25 26 26 25 26 26 24 25 28 30 28 25 25 26 27 27 26 26 26 26 26 24 21 20 24 26 25 22 20 20 21 21
22 21 20 19 21 20 18 18 19 18 18 18 19 19 17 15 16 17 19 22 21 16 13 14 14 13 14 18 19 19 19 18 17 16 19 24 27 26 24 23 22 21 23 25 25 22 20 20 23 26 27 26 25 24 24 23 23 23 23 23 24 25 24 23 22 23 25 25 24 25 26 27 28 26 22 23 25 26 26 25 24 20 19 23 23
21 21 21 20 23 22 20 19 20 19 19 21 24 25 22 18 19 18 11 7 10 12 13 15 16 15 14 16 18 19 18 17 17 17 18 21 25 26 26 25 23 23 23 24 25 25 23 20 22 24 25 25 24 24 24 23 23 23 22 22 23 24 24 24 23 24 26 26 26 26 26 27 28 27 26 26 26 25 25 25 25 23 20 20 21
21 21 21 20 22 22 20 20 22 21 20 21 23 23 21 19 18 16 13 15 16 11 5 4 9 13 15 16 18 20 20 19 19 19 18 20 23 25 27 27 26 25 26 26 26 27 26 23 21 20 21 22 24 25 25 24 23 23 22 21 21 22 25 28 27 25 24 24 24 26 27 27 26 26 26 25 24 25 24 22 23 26 23 20 22
21 22 23 21 21 22 21 21 22 21 20 20 21 20 18 17 16 15 14 16 19 21 20 16 10 4 4 9 12 17 20 21 20 19 20 22 23 24 25 27 26 26 28 29 28 25 23 21 19 20 20 21 22 23 24 23 22 21 22 23 22 21 24 27 28 27 26 25 25 26 29 29 26 25 26 25 25 26 26 22 22 25 25 22 23
21 22 24 23 20 20 20 20 20 20 19 19 19 20 20 18 16 16 17 17 18 19 22 23 22 21 16 10 7 6 12 17 20 21 20 21 23 24 25 25 26 26 28 29 26 22 19 18 19 20 21 21 22 22 22 22 21 21 23 24 24 23 23 24 25 26 27 29 29 30 30 29 28 29 30 29 27 27 27 25 22 23 25 26 27
21 21 24 23 21 19 19 19 19 18 18 18 18 20 21 20 18 17 17 18 17 18 20 22 23 25 26 24 21 17 12 7 10 18 19 17 18 20 18 16 17 19 20 22 22 20 19 19 19 20 20 20 21 21 21 21 22 23 24 24 25 25 26 27 27 26 25 25 27 30 29 26 26 27 27 27 26 26 27 27 25 24 25 27 29
20 20 21 22 20 19 18 19 19 19 18 18 18 18 19 21 20 19 19 20 19 19 21 23 24 24 27 29 26 24 24 22 13 1 7 7 7 7 4 0 3 5 7 11 14 16 17 18 18 19 19 19 19 20 21 21 22 23 23 23 23 25 25 24 24 24 22 19 19 23 23 21 22 23 23 23 24 24 25 27 27 25 24 26 28
18 19 20 20 20 19 19 19 21 21 20 19 19 18 18 19 20 19 19 20 19 19 20 24 25 25 26 28 27 25 24 24 23 20 19 17 13 13 13 12 10 8 7 6 6 7 10 12 12 12 12 13 14 16 18 19 20 20 20 20 21 23 23 21 19 19 19 17 16 18 19 20 21 22 22 23 24 24 24 25 25 25 26 28 28
17 19 21 20 18 18 18 19 20 21 20 19 20 20 18 18 19 18 17 18 19 19 20 23 25 26 25 24 25 24 25 28 29 28 25 23 22 20 18 16 15 15 14 14 14 12 10 9 10 10 10 9 9 10 11 13 14 16 17 18 19 20 21 21 19 18 17 17 17 18 19 20 21 22 22 23 25 26 26 26 24 22 24 27 27
16 18 21 21 18 17 17 18 19 19 19 19 19 20 19 19 19 18 17 17 17 18 19 21 24 27 28 27 24 22 24 29 30 27 25 23 21 20 18 17 18 19 18 19 20 19 16 14 13 12 12 10 10 10 12 12 12 12 13 14 15 16 17 17 17 16 16 18 19 20 20 22 24 24 23 24 25 27 27 27 26 23 21 24 28
15 17 20 20 18 17 17 17 17 18 18 18 18 19 19 19 19 19 18 18 18 18 18 19 22 27 31 30 26 21 20 23 23 23 24 23 22 21 21 20 19 20 21 22 22 20 18 17 16 14 13 13 13 13 13 14 14 13 13 14 14 14 13 13 14 16 18 20 22 22 23 25 26 25 24 25 27 29 28 27 28 27 25 25 28
15 16 17 19 18 17 16 16 17 17 17 17 17 17 18 18 18 18 18 18 18 18 18 18 20 23 28 29 26 22 20 19 19 20 22 23 23 22 21 20 20 21 22 22 20 17 16 16 16 15 15 14 13 13 14 14 15 16 16 16 16 16 15 14 15 18 21 23 24 24 25 26 26 25 26 27 28 30 30 29 28 28 28 27 27
16 16 17 17 17 17 16 16 16 16 16 16 16 16 16 16 16 17 17 18 18 18 18 18 17 19 24 27 26 23 21 20 20 20 22 22 23 23 22 21 21 21 21 21 19 17 16 16 15 15 15 14 14 15 15 15 16 17 17 17 16 16 17 17 17 18 20 22 25 26 27 28 28 28 28 29 28 28 28 29 28 27 27 27 27
15 15 16 16 16 16 15 15 14 14 15 15 15 15 16 15 15 16 16 17 17 17 17 18 17 17 20 23 24 22 21 21 21 21 22 22 22 23 23 23 23 22 22 21 20 19 18 16 16 16 15 14 14 15 15 15 15 16 17 17 16 16 17 17 17 17 18 20 22 24 27 28 29 29 28 29 28 27 27 27 27 27 27 27 28
12 13 13 14 14 13 13 13 13 13 13 13 13 14 15 15 15 16 16 16 17 17 17 17 18 18 19 21 21 21 21 20 20 21 21 21 21 22 22 23 24 24 24 23 22 22 20 19 19 20 18 16 16 16 16 16 16 15 16 16 15 15 16 17 17 17 17 19 20 22 24 25 26 27 27 27 27 27 28 27 27 27 28 27 26
10 11 11 11 12 12 12 12 12 13 13 13 13 14 15 15 15 16 16 15 16 16 16 16 17 18 19 19 20 20 20 20 20 20 20 20 20 19 19 21 22 24 25 25 25 25 24 23 22 21 21 20 19 18 18 19 19 18 18 16 15 16 16 16 17 17 16 17 19 20 22 24 25 25 25 25 26 26 27 27 28 28 28 28 27
8 9 9 9 9 10 11 11 12 12 12 13 13 14 14 14 15 15 16 16 15 15 16 16 16 17 18 18 19 19 19 19 19 19 18 18 18 17 16 17 17 18 20 23 23 24 24 24 22 20 21 22 21 19 18 18 19 19 19 17 17 19 20 19 20 20 19 19 19 20 21 22 24 25 25 25 26 26 26 27 27 28 28 28 29
7 7 8 7 8 8 9 10 10 10 11 11 12 12 13 13 14 14 15 15 15 15 15 16 16 16 17 17 17 18 18 18 18 17 17 17 17 16 15 15 15 14 15 17 19 21 22 23 23 21 21 22 23 21 20 19 18 18 17 16 19 22 23 22 21 20 20 21 22 22 22 22 23 24 25 25 25 26 27 27 27 28 29 29 29
7 7 7 6 6 7 7 8 9 9 9 9 10 10 11 12 12 13 13 14 14 14 15 15 15 16 16 16 16 16 16 15 15 16 16 16 16 16 15 15 15 14 14 14 16 18 19 21 21 21 21 23 24 24 22 22 23 24 23 23 24 24 23 21 20 19 19 20 21 23 25 26 25 24 24 25 25 25 26 27 27 27 28 28 29
6 6 6 6 5 6 6 7 7 8 8 8 8 8 9 10 11 11 12 12 13 13 13 14 14 14 15 16 16 15 15 15 14 14 15 15 15 15 15 15 15 15 15 15 15 15 16 18 19 19 20 22 24 25 24 24 26 28 29 29 28 26 23 22 21 19 19 20 20 20 22 24 26 25 25 26 27 27 27 28 28 27 27 27 28
6 6 6 5 5 5 5 6 6 6 7 7 6 7 7 8 9 10 10 11 11 12 12 12 13 13 13 14 14 15 15 15 14 14 14 14 13 14 14 15 15 15 15 15 15 15 15 16 17 18 19 22 26 28 28 28 29 30 31 31 30 27 25 24 23 20 19 19 18 17 17 18 21 23 25 26 27 27 28 28 28 27 27 27 27
5 5 5 5 5 5 5 5 5 5 6 6 5 6 6 6 7 8 8 9 9 10 11 11 11 11 11 12 12 13 13 14 14 14 14 14 14 14 14 14 14 14 15 15 15 15 15 15 16 16 17 20 24 28 29 29 30 30 31 31 31 29 27 26 24 21 18 16 13 13 14 15 16 18 20 21 23 24 26 27 27 26 26 25 25
Wind_Direction
274 269 263 256 251 247 244 241 238 236 232 230 228 228 229 229 231 231 229 228 225 221 222 227 230 229 228 226 223 219 216 214 212 214 213 207 204 206 207 210 214 216 216 214 213 212 210 209 210 212 213 214 214 213 212 209 207 212 215 215 219 220 219 224 232 224 195 189 199 189 179 187 194 195 191 190 201 200 195 199 199 199 201 197 199
272 269 266 259 252 248 245 241 238 235 232 229 227 227 227 227 228 227 226 224 221 218 217 219 222 224 226 227 226 221 218 216 213 212 216 214 208 206 207 209 212 213 215 214 212 212 212 212 213 213 214 216 217 215 212 209 207 209 212 214 216 218 217 218 225 227 205 189 194 186 177 187 194 195 193 190 195 197 195 196 196 198 200 196 199
271 268 265 261 256 250 245 241 237 234 232 229 227 226 226 227 227 225 222 219 216 215 215 216 218 221 223 224 226 225 220 218 217 213 214 215 213 210 208 209 210 209 212 214 212 211 211 212 213 213 213 215 216 215 213 211 209 209 210 211 214 218 219 219 224 229 218 200 193 186 184 190 195 195 196 196 193 191 195 199 196 194 199 199 200
270 266 262 260 257 252 247 242 237 234 231 229 228 226 224 225 226 224 221 216 214 214 213 215 218 220 222 222 224 225 221 218 219 218 217 215 213 213 211 210 210 208 210 214 213 212 211 212 212 213 213 215 215 214 213 212 210 210 209 209 213 218 219 220 224 229 227 211 194 190 192 194 195 193 193 197 198 193 194 202 203 196 198 201 203
267 263 260 258 255 251 247 242 237 233 231 230 229 227 224 224 225 224 220 215 215 215 209 210 216 218 221 222 223 224 221 217 218 219 221 218 214 213 214 212 210 210 211 214 213 213 213 212 212 212 213 215 215 213 212 212 211 209 209 209 213 218 219 220 223 226 232 220 194 189 195 194 194 194 192 193 197 196 196 202 205 200 198 203 207
265 261 258 255 252 250 246 242 237 233 232 231 230 227 225 223 223 222 219 214 213 212 207 208 214 216 219 222 223 225 222 218 217 218 219 220 218 215 215 214 213 212 212 214 214 214 214 213 213 212 214 215 214 213 211 211 212 211 209 208 211 218 220 219 219 222 229 227 204 190 192 194 194 196 196 194 192 194 197 200 202 200 200 205 209
264 260 256 253 250 247 245 243 238 234 231 231 230 228 225 223 222 220 218 214 212 209 206 209 215 216 217 220 223 226 225 219 217 217 218 220 221 218 216 216 215 213 213 214 214 214 215 215 214 213 214 215 214 213 210 210 212 212 209 206 208 216 219 218 218 218 221 226 216 197 191 196 198 196 197 197 195 195 195 196 199 202 203 206 208
264 259 255 252 248 245 244 244 240 235 231 229 230 229 224 221 221 218 215 213 211 209 206 210 217 217 216 219 223 227 227 218 212 215 220 224 227 223 215 213 213 211 212 213 214 215 215 215 215 214 214 215 213 211 210 209 210 210 208 203 203 212 217 217 217 216 215 221 220 206 194 195 197 194 193 197 200 200 197 194 196 200 203 207 209
262 258 254 251 247 243 241 242 239 235 231 228 229 229 225 221 219 216 214 211 209 208 206 209 217 217 213 218 224 226 228 222 214 214 216 223 234 231 218 212 212 211 211 213 214 215 214 213 214 214 214 214 214 212 211 209 208 207 204 200 199 205 214 216 216 215 213 216 220 214 201 193 193 192 191 195 199 201 198 195 198 200 201 205 211
258 255 252 250 248 242 237 237 236 232 229 227 226 228 226 222 218 214 212 210 207 206 204 208 216 216 210 218 225 223 225 225 223 220 216 219 234 241 226 217 217 217 218 217 216 216 215 213 213 215 216 215 215 215 213 212 211 207 202 199 198 200 206 213 214 211 210 212 216 215 208 200 195 195 194 195 200 201 195 195 201 202 200 204 212
254 252 249 247 247 241 233 232 232 228 227 226 224 225 225 220 216 213 211 209 206 203 201 206 216 216 208 217 225 221 219 223 225 226 223 222 227 230 223 220 221 223 225 223 221 218 215 214 214 215 217 218 217 216 215 214 214 211 207 202 200 200 203 208 210 207 205 209 212 215 215 207 198 200 202 199 200 201 197 197 201 202 200 205 211
253 248 244 242 243 238 230 227 228 225 224 224 222 222 221 215 214 215 211 206 203 201 199 204 211 212 207 215 223 219 216 223 228 229 227 225 224 221 219 219 216 216 217 220 223 221 215 212 213 213 215 217 216 216 216 217 218 217 214 211 207 206 206 208 209 207 205 207 210 215 219 213 204 205 208 205 200 199 199 201 202 202 203 206 212
254 246 236 235 239 235 227 224 225 222 221 222 219 220 217 210 211 215 212 203 200 202 205 207 206 203 204 211 217 215 214 223 231 231 226 223 220 216 215 215 213 212 211 215 222 223 216 210 211 213 214 214 214 215 217 219 221 222 223 221 216 215 215 215 214 211 209 209 212 216 219 217 210 205 206 207 204 198 198 201 202 205 209 212 215
254 246 233 230 232 228 222 221 222 220 220 218 214 215 217 210 207 211 211 204 201 202 208 211 203 198 204 208 210 213 215 222 232 235 230 224 218 214 213 214 218 217 212 213 220 223 219 212 210 211 212 210 210 212 213 215 218 221 224 225 223 223 224 225 224 221 217 216 218 220 220 220 216 209 204 205 206 202 199 199 200 204 211 215 217
248 240 233 229 225 220 217 218 218 216 217 215 205 205 214 213 205 203 204 204 204 204 207 209 204 201 206 205 206 212 215 221 231 237 235 227 220 218 220 222 224 223 216 214 219 224 224 218 213 211 210 209 208 208 209 210 211 214 218 222 224 226 228 230 230 227 224 223 224 224 224 223 223 219 208 202 205 209 207 202 202 205 210 215 217
254 232 229 226 220 216 214 213 214 213 211 209 202 199 208 213 205 197 199 204 207 205 204 206 205 204 205 204 204 209 213 220 229 235 238 232 223 220 223 225 226 227 225 222 222 227 229 225 217 214 211 209 210 209 207 207 208 210 213 217 220 223 226 229 231 230 228 227 227 226 227 228 228 225 215 204 205 210 210 210 209 206 208 212 213
303 250 231 226 220 216 213 207 207 210 205 203 202 197 201 209 206 198 198 202 204 201 199 203 205 203 203 202 201 206 213 219 226 232 235 234 225 220 219 222 225 227 228 227 225 227 230 226 220 217 213 211 213 212 209 208 210 210 211 213 216 219 222 225 229 232 232 231 230 229 230 232 232 230 222 215 211 206 205 211 209 202 204 208 209
336 308 254 234 223 217 216 209 205 207 203 199 201 199 198 203 204 201 202 201 198 195 196 201 203 201 199 196 195 202 210 216 222 228 231 230 226 221 216 215 219 223 225 226 225 227 230 227 221 219 217 214 215 215 213 211 211 213 214 213 214 217 219 219 223 230 233 235 235 235 234 234 235 233 226 222 221 214 210 215 210 201 204 209 210
336 328 299 260 237 220 218 216 209 211 209 203 202 202 204 208 205 202 205 203 196 194 195 197 200 202 199 193 194 200 206 213 220 225 226 226 224 220 215 211 215 219 222 224 224 227 230 228 224 222 220 219 219 219 216 212 212 215 216 216 216 217 217 215 215 220 225 229 233 235 235 234 234 233 227 224 227 224 221 221 215 206 210 216 217
334 327 314 286 266 225 207 234 281 281 295 268 235 236 266 271 243 219 212 206 197 194 195 195 199 203 198 190 193 201 205 209 218 223 224 223 222 219 215 214 214 215 218 221 223 226 229 229 227 225 222 221 223 224 221 216 215 216 217 219 220 218 217 216 214 214 217 221 226 231 234 233 231 229 226 223 225 226 225 224 220 215 217 221 221
339 340 356 48 50 63 76 62 21 17 34 257 242 248 273 289 289 282 263 236 211 197 193 196 202 205 199 190 191 199 205 208 215 221 223 221 219 217 215 216 216 215 216 219 222 224 227 227 227 225 223 221 222 227 227 223 221 221 220 221 222 222 221 218 216 216 218 221 223 226 229 229 226 225 225 223 225 227 227 226 224 222 222 224 224
346 355 22 53 54 63 84 94 106 115 118 150 184 276 277 263 268 288 299 292 266 234 214 210 211 209 201 192 192 198 205 209 213 218 223 223 220 218 217 217 218 217 219 222 224 225 228 228 226 226 226 224 224 227 230 228 226 226 225 224 225 227 227 224 219 219 220 224 226 227 227 225 223 222 223 223 225 227 227 227 225 225 226 226 225
350 359 17 36 43 49 64 76 83 84 80 73 70 59 28 341 267 263 288 301 290 278 271 258 245 230 210 195 193 200 204 209 213 216 220 223 222 221 220 219 219 220 223 228 229 229 230 231 230 230 230 229 227 227 229 229 228 229 229 227 226 228 231 231 226 224 223 223 225 227 227 225 223 223 224 225 226 225 225 226 227 227 228 228 227
353 3 11 23 33 38 45 52 57 65 69 68 69 67 50 24 295 269 261 253 252 256 257 253 251 249 234 206 194 202 206 208 212 215 219 222 223 223 223 223 223 224 227 232 236 236 234 233 233 233 233 233 232 231 231 231 230 231 231 231 230 231 234 234 230 227 228 226 226 228 228 225 225 226 228 229 229 228 225 226 228 229 230 230 228
353 2 9 18 21 22 31 41 41 43 39 39 44 21 1 342 284 272 247 225 225 232 241 240 233 240 242 229 206 206 210 209 211 215 220 223 225 226 226 226 227 228 229 233 237 240 240 238 237 235 235 236 236 236 236 235 235 234 233 233 233 233 234 235 233 232 231 230 231 232 230 228 229 232 235 236 233 230 228 229 232 232 231 231 230
354 357 2 11 15 15 17 15 14 32 28 5 8 2 341 317 289 275 256 240 230 222 227 232 228 229 236 234 220 212 215 216 214 214 216 221 225 227 227 228 230 232 234 236 239 241 242 243 243 242 240 239 237 237 238 239 239 238 236 235 234 233 232 232 232 233 233 232 233 234 233 234 236 236 238 237 234 231 229 229 231 231 228 229 229
356 357 359 5 8 10 11 3 354 7 18 352 338 335 326 314 296 282 268 256 245 229 220 221 223 226 230 230 225 222 222 221 219 213 210 214 220 223 224 226 230 232 234 237 241 244 245 245 246 248 250 249 243 238 240 242 240 238 237 236 235 234 232 230 229 232 235 234 233 233 233 236 239 240 238 231 228 231 229 224 224 229 226 224 223
-0 0 1 5 4 0 3 5 360 3 7 352 336 334 333 321 301 287 276 265 254 243 233 226 224 226 228 227 226 228 228 226 226 221 213 210 213 216 218 221 225 229 232 234 237 243 247 248 247 247 249 251 246 237 234 235 235 235 235 235 234 234 233 231 230 233 237 238 237 236 234 234 238 243 239 228 222 229 227 221 223 229 225 214 210
4 4 4 6 3 358 0 7 7 6 4 358 349 346 351 350 329 300 281 270 261 252 245 239 235 233 234 232 228 229 232 233 232 228 220 215 214 215 216 217 218 224 232 235 235 238 244 246 244 242 242 243 240 233 227 225 225 228 229 227 227 229 230 229 228 229 233 237 239 238 238 238 240 242 237 227 228 232 227 218 217 222 219 212 207
4 4 4 4 3 2 4 6 6 6 5 2 358 354 359 10 1 329 293 271 266 266 260 257 257 255 251 244 239 239 244 249 248 239 228 222 220 220 221 222 222 225 230 233 233 235 238 239 237 237 236 236 234 230 226 223 221 222 224 223 223 225 225 225 225 226 228 231 233 235 237 239 241 241 235 227 230 235 233 225 218 213 211 212 212
7 4 2 2 3 4 7 6 5 6 5 6 7 2 -0 8 9 357 340 306 287 277 265 262 264 267 267 262 256 254 256 263 268 263 248 234 229 229 229 229 232 235 234 231 229 230 232 234 235 235 235 234 233 230 227 224 222 221 223 225 225 225 225 225 226 226 227 228 230 232 234 235 235 235 232 228 228 234 238 232 219 209 208 211 214
11 7 4 3 4 6 8 7 7 8 6 6 9 7 1 1 1 4 27 45 42 35 19 292 260 260 266 268 266 264 263 265 269 269 260 246 238 237 236 234 236 239 237 233 229 227 227 229 233 234 233 232 232 232 229 226 224 222 223 224 225 226 227 229 229 227 226 225 225 227 229 230 230 229 229 229 231 234 237 230 212 205 207 212 216
14 10 7 6 7 8 10 8 8 10 10 7 6 5 5 3 355 354 8 24 33 40 39 38 48 49 289 274 270 267 263 261 263 264 258 248 240 238 238 237 239 242 237 230 227 225 224 226 230 232 232 231 232 232 230 228 227 227 227 229 229 227 228 230 231 230 228 226 223 224 226 228 229 231 233 233 233 232 231 226 211 204 206 211 217
12 10 9 10 11 10 10 10 9 9 11 13 10 8 10 10 3 4 10 10 14 22 21 21 35 48 48 36 13 317 272 262 259 256 250 242 234 232 235 236 238 241 237 230 227 226 225 226 230 232 232 232 233 231 228 226 227 228 230 233 234 233 232 229 226 225 225 224 224 226 228 228 229 232 233 232 230 228 227 225 216 204 202 209 216
11 9 9 12 14 13 12 13 12 10 11 15 16 15 17 18 16 18 21 19 16 16 11 8 20 38 47 49 45 39 29 355 275 245 235 233 229 227 230 236 237 239 237 232 229 230 229 229 233 236 237 235 234 232 231 229 227 228 230 232 234 236 236 231 225 222 218 218 222 227 229 230 230 230 230 229 227 225 226 226 221 211 205 208 214
14 12 9 10 13 16 17 16 14 13 13 14 17 18 21 24 25 24 25 25 24 22 15 10 16 29 41 44 45 47 48 44 36 108 186 194 206 193 166 130 272 261 255 245 238 237 237 235 234 236 238 237 235 233 233 232 230 230 229 229 231 234 234 232 229 222 213 211 219 225 228 232 233 230 229 228 226 226 228 228 226 220 213 211 215
21 18 13 10 10 13 17 17 15 15 16 18 19 20 22 25 27 27 26 25 26 26 20 16 18 23 28 32 35 42 49 48 45 54 72 80 79 76 69 59 53 48 36 10 335 296 272 265 262 258 252 247 242 238 235 232 232 232 231 232 234 235 234 233 231 225 217 216 222 226 228 233 235 230 226 225 226 227 229 230 231 229 224 220 220
25 22 16 14 14 13 14 14 14 15 19 21 20 20 21 23 26 29 28 25 26 28 24 21 22 19 15 15 21 29 40 44 41 38 45 54 57 54 50 48 49 48 41 30 20 7 344 328 329 325 311 296 284 277 268 256 245 240 237 233 231 231 232 231 227 222 218 220 227 232 233 234 235 232 227 224 225 228 230 231 233 232 227 224 222
22 21 16 16 17 17 14 14 13 15 18 20 20 20 21 21 23 26 26 25 25 26 25 24 24 21 16 15 16 20 31 40 38 30 28 35 42 43 42 41 40 37 33 27 22 15 6 3 5 1 351 345 341 333 323 312 296 278 265 256 246 239 232 226 221 218 219 226 234 240 241 240 240 238 232 228 228 230 231 232 231 229 226 224 223
17 17 15 15 17 18 17 17 17 17 16 17 19 21 22 22 23 24 25 25 26 26 26 28 26 22 20 21 22 24 31 37 36 31 30 31 34 38 41 40 36 34 32 28 23 14 3 359 4 8 5 1 358 353 343 335 328 319 309 301 291 275 255 238 231 232 236 241 244 245 245 245 244 241 236 234 233 232 233 234 234 233 231 228 226
16 15 15 15 16 18 19 19 19 20 19 19 20 21 22 22 23 23 24 26 26 26 28 30 29 24 23 25 28 32 36 37 34 33 34 33 32 34 37 36 34 33 31 28 23 13 1 357 2 9 10 4 357 353 346 338 334 332 329 326 319 306 290 277 266 257 253 252 250 248 247 246 244 240 238 237 237 236 235 235 236 236 235 233 231
16 16 17 17 16 17 18 18 18 20 21 22 22 22 22 24 25 24 25 26 26 27 27 27 26 22 21 23 28 33 36 35 33 32 33 34 33 33 33 32 32 31 29 27 23 11 2 -0 5 12 14 7 359 355 352 346 339 336 334 334 332 322 310 300 288 274 264 258 255 253 252 250 246 244 243 241 239 237 235 235 235 235 234 234 233
15 15 17 18 17 17 18 18 17 19 21 23 24 24 24 26 27 27 28 28 27 27 28 26 23 21 18 20 25 32 34 32 30 29 30 31 32 32 32 32 32 31 29 29 26 18 11 8 11 15 17 13 7 3 359 352 346 341 337 335 333 327 318 310 302 290 280 272 266 261 259 255 249 245 244 242 240 238 236 236 235 233 233 234 232
14 14 15 17 18 19 19 19 19 19 19 22 26 28 27 28 28 27 28 29 28 29 29 26 23 22 22 22 25 29 30 29 27 27 28 28 28 28 28 29 30 31 30 30 28 26 23 20 20 22 23 20 15 12 8 4 360 354 348 341 335 331 326 319 312 304 295 287 279 269 264 262 257 251 246 243 240 239 237 235 233 232 232 233 232
8 10 12 16 17 18 19 19 19 20 21 23 27 28 27 28 29 27 26 27 27 28 30 28 25 24 25 24 25 27 27 27 26 26 26 26 25 24 24 25 26 28 30 30 30 28 27 26 25 25 25 24 21 17 14 13 12 9 4 357 347 341 332 320 310 305 300 295 287 276 268 266 264 259 253 247 242 240 239 237 234 233 232 231 230
1 3 4 11 14 15 17 17 16 19 22 23 25 25 25 26 27 27 27 27 26 26 28 28 28 28 27 25 26 26 26 26 27 26 24 25 24 22 21 22 24 26 28 30 31 31 30 29 27 24 22 23 24 21 17 15 13 10 8 4 356 349 340 324 308 298 292 291 290 285 277 271 264 258 257 254 249 245 243 241 238 236 234 233 233
355 355 356 2 7 9 14 16 15 18 21 22 22 23 23 23 23 24 24 25 26 26 27 27 28 29 29 28 27 26 25 25 26 25 24 23 23 21 19 19 21 22 24 27 30 32 33 33 32 28 23 22 22 21 19 16 13 10 7 2 356 353 347 336 322 310 297 289 284 281 279 276 268 260 256 255 253 250 247 245 242 240 238 237 237
348 348 348 353 357 2 9 15 14 16 19 20 20 22 21 21 22 23 22 23 24 24 24 25 26 26 27 28 27 27 26 25 24 23 22 21 21 20 20 19 20 21 21 21 25 28 30 31 31 29 26 22 20 19 17 16 15 15 12 6 2 360 355 346 337 328 314 301 290 281 276 275 274 268 260 254 252 251 250 249 247 244 242 241 240
345 344 343 345 348 351 358 3 7 11 15 16 16 19 20 20 21 22 21 22 23 23 22 23 23 22 23 24 25 25 25 24 23 21 20 18 16 16 16 16 17 19 19 19 19 21 24 25 26 27 26 23 20 18 16 14 13 13 11 8 7 8 4 357 350 340 327 316 306 295 286 280 276 272 267 261 257 254 251 250 249 247 244 243 241
339 338 337 336 337 340 344 350 356 3 9 11 13 15 16 17 20 22 21 20 22 22 21 21 21 21 21 20 20 19 19 19 18 17 16 15 14 12 11 12 12 13 14 15 14 13 15 17 20 22 24 23 22 21 19 17 15 14 12 10 11 12 10 6 -0 352 340 328 317 310 307 300 287 277 270 265 261 257 253 250 249 245 243 243 241
322 327 325 324 326 327 329 335 343 350 357 2 3 4 7 12 15 17 18 19 19 19 19 18 19 21 21 20 19 18 15 14 14 14 13 12 12 12 11 11 10 10 10 10 9 9 10 11 11 14 17 19 20 20 20 17 16 16 14 12 11 12 13 11 7 1 355 350 339 328 327 324 312 297 284 274 268 263 258 254 251 247 242 241 241
Height
744 743 742 742 741 741 741 741 741 741 741 742 742 743 744 745 746 747 749 750 752 753 755 757 758 760 761 762 764 766 767 768 769 771 773 773 775 777 779 782 785 787 789 790 792 793 795 796 798 801 802 804 805 807 808 809 810 811 813 814 814 815 816 817 817 817 820 823 825 826 829 831 833 835 837 838 839 841 843 845 846 846 848 849 850
740 739 739 738 737 737 737 737 737 737 737 737 737 738 739 741 742 743 744 746 748 749 751 753 755 756 757 759 760 762 763 765 765 767 769 770 771 772 774 777 780 782 784 786 788 790 791 792 795 797 799 801 802 803 804 806 807 808 810 811 812 812 814 815 815 815 817 820 823 825 827 829 831 833 835 836 837 839 841 842 843 845 846 848 849
737 736 735 734 733 733 732 732 732 732 732 732 732 733 734 736 737 738 739 741 743 745 747 749 751 752 753 754 756 758 759 761 762 763 764 766 767 768 770 772 774 777 779 781 783 786 787 789 791 794 796 797 799 800 801 802 803 805 806 808 809 810 812 813 813 813 815 818 821 823 825 827 829 830 832 834 836 837 839 840 841 842 844 845 847
734 732 731 729 729 729 728 727 727 727 727 727 727 728 729 731 732 733 735 737 739 742 743 745 747 749 750 750 751 753 755 757 758 759 760 762 763 764 766 768 770 772 774 777 779 781 783 785 787 790 792 793 795 796 797 799 800 801 803 805 807 808 810 811 811 812 813 815 818 821 822 824 826 827 830 832 833 835 836 838 839 840 841 843 844
731 729 727 725 725 724 723 723 723 722 722 722 723 723 725 726 727 729 730 732 736 739 739 741 743 745 746 747 747 748 750 752 754 756 758 759 760 761 762 764 766 768 770 773 775 777 779 781 783 786 788 789 791 792 793 795 797 798 800 802 804 806 807 809 809 811 811 812 815 818 820 822 823 824 826 828 830 832 834 835 836 837 839 840 842
727 725 724 722 720 719 719 719 718 717 718 718 718 720 721 722 722 724 726 728 732 734 735 737 739 740 741 743 743 744 746 748 750 753 756 757 757 758 758 760 762 764 766 768 771 773 775 777 779 781 783 785 787 788 790 792 794 795 797 799 801 803 805 806 807 808 809 810 812 816 818 820 821 822 824 825 827 828 830 832 834 835 837 838 839
722 721 719 718 716 715 714 714 713 713 713 714 715 715 716 717 718 720 722 724 727 729 730 733 736 737 737 738 739 740 742 744 746 748 751 753 755 756 755 756 758 760 762 764 767 769 771 773 775 777 779 781 783 784 786 788 790 791 793 795 798 800 802 803 804 806 807 808 810 813 815 818 819 820 822 824 825 826 827 829 831 833 834 836 837
717 716 714 713 712 711 711 710 709 709 709 710 711 711 712 713 713 715 717 720 722 724 725 729 733 734 733 734 735 737 739 741 742 744 748 752 755 754 753 754 755 756 758 760 763 765 767 770 771 773 775 777 779 780 782 784 785 787 789 791 794 796 798 800 801 802 804 805 806 809 812 815 816 818 820 822 823 823 824 826 828 830 832 833 834
712 711 709 707 707 707 707 707 705 705 705 705 706 707 707 708 709 710 713 715 717 720 721 725 730 730 729 729 731 733 735 737 739 741 746 752 755 754 752 752 752 753 755 757 760 762 764 766 767 769 771 773 775 776 777 779 781 782 784 786 789 792 794 796 797 799 800 801 803 805 808 811 812 814 816 817 818 819 821 823 825 826 828 830 831
707 705 703 702 702 702 703 703 701 701 701 701 702 702 703 704 705 706 708 710 713 716 718 722 726 725 724 725 728 729 731 733 735 737 741 746 750 752 752 752 752 753 753 755 757 759 761 763 764 766 768 769 771 772 774 776 777 778 780 781 783 786 789 791 793 794 796 797 798 800 803 805 807 809 811 812 814 816 818 819 821 822 825 826 826
702 700 698 698 698 697 697 698 697 696 696 697 697 698 700 701 701 702 704 706 709 712 714 718 722 721 719 722 725 726 728 729 731 733 736 738 742 746 748 749 750 752 753 753 755 756 758 759 761 762 764 766 767 769 771 772 774 775 776 777 779 781 783 785 787 789 790 792 793 795 796 799 802 805 807 809 810 812 813 814 816 819 820 821 821
695 694 693 693 693 692 692 694 693 692 692 692 693 695 696 697 698 700 701 703 706 708 710 715 718 716 716 718 721 723 725 726 727 729 731 733 736 739 742 744 746 747 749 750 752 754 755 756 757 759 760 762 764 766 768 770 771 773 774 775 776 777 779 781 782 783 784 786 787 789 790 793 796 800 802 803 805 806 808 810 812 814 815 815 816
689 687 687 688 688 687 688 689 689 687 688 688 689 691 692 693 695 698 699 700 702 706 708 711 712 711 712 715 717 720 722 723 724 725 726 729 731 734 737 740 742 743 745 747 749 751 751 752 753 755 756 758 760 763 764 766 768 770 772 773 774 775 776 777 779 780 781 782 783 784 785 788 790 793 795 798 800 801 803 805 807 809 810 810 810
683 683 683 683 683 683 684 685 684 683 684 684 685 687 689 691 694 696 696 697 699 703 707 708 706 706 709 712 714 717 718 720 721 722 724 726 728 730 733 737 739 740 742 744 747 748 748 748 749 750 752 754 756 758 760 762 765 766 768 770 771 771 773 774 776 777 778 779 779 780 782 783 785 787 789 792 795 796 796 798 800 802 803 804 805
679 680 680 679 678 679 679 680 679 679 680 680 681 684 688 691 692 692 692 693 696 699 701 702 702 703 707 709 711 713 715 717 719 720 722 725 726 728 730 733 736 738 739 741 744 745 746 745 745 746 748 750 751 753 755 758 760 762 764 765 766 768 769 770 771 772 774 775 776 777 778 780 782 784 785 787 790 792 793 793 794 796 798 800 803
675 676 676 675 675 675 675 675 675 675 675 677 679 682 686 688 687 686 687 690 694 695 696 698 699 701 704 706 708 710 712 714 716 718 720 723 725 726 728 730 733 735 737 738 740 742 744 744 743 742 744 745 747 749 751 754 756 758 759 761 762 763 764 764 765 767 770 772 773 774 776 777 778 780 782 784 786 789 791 792 793 794 796 798 800
674 673 672 672 672 671 671 671 671 671 671 673 676 679 682 684 683 682 684 688 690 690 691 694 696 698 700 702 705 707 709 711 713 715 717 720 722 723 724 727 730 732 734 735 736 739 742 742 740 739 740 741 743 745 748 751 753 754 755 756 757 758 759 759 761 762 765 767 769 771 773 774 775 776 779 780 782 785 788 788 789 791 792 794 794
674 672 670 669 669 669 669 667 667 667 667 669 672 674 677 679 679 680 681 682 683 684 687 690 692 694 696 698 700 703 705 706 708 711 713 716 719 720 721 724 726 729 731 732 733 736 738 737 736 736 736 737 739 741 745 748 750 750 751 752 753 753 754 755 756 757 759 762 765 767 769 770 771 773 774 776 778 781 782 783 784 787 788 788 788
674 671 668 668 668 668 668 667 667 668 668 669 670 672 675 677 677 677 677 677 677 680 683 686 688 690 692 693 695 698 700 702 704 706 709 712 715 717 719 720 722 724 726 727 730 732 732 732 732 732 732 734 736 738 741 744 746 747 747 748 749 749 750 751 752 753 754 757 759 762 764 765 767 769 770 772 774 775 776 778 780 781 781 782 783
676 672 669 669 670 669 668 669 670 670 672 673 674 674 676 678 678 678 677 675 674 677 679 681 684 687 687 688 690 693 696 699 701 702 705 708 711 714 716 716 716 718 721 722 724 725 726 726 727 728 729 731 733 735 738 740 742 743 743 744 744 745 745 746 747 749 751 752 755 757 759 761 763 765 767 768 769 770 771 773 774 775 776 776 777
677 674 671 671 671 670 670 671 672 672 675 679 679 677 676 678 680 680 680 677 674 675 676 677 680 683 683 683 686 689 692 694 697 699 701 704 707 710 712 712 713 714 716 718 719 719 720 721 722 724 725 727 730 732 734 736 738 740 740 740 741 742 743 743 745 747 748 750 752 754 756 757 759 761 762 763 764 764 765 766 768 770 770 770 771
679 676 675 673 672 671 672 672 672 673 674 677 677 676 675 676 677 680 682 682 679 678 678 678 679 680 680 680 682 685 688 691 693 695 698 700 702 705 707 708 710 711 713 714 715 716 716 718 719 720 722 724 726 728 731 733 735 736 736 737 739 740 742 742 743 744 745 746 748 750 751 753 754 755 756 757 758 758 758 760 762 763 763 764 765
682 680 679 677 675 673 672 672 673 673 673 674 674 675 676 676 676 678 681 684 684 684 683 682 683 682 679 677 680 683 685 688 690 692 694 697 699 701 702 704 707 709 710 711 712 713 714 715 717 718 719 721 723 725 727 729 730 731 733 735 736 738 739 741 741 740 740 742 743 744 746 747 748 749 750 751 751 752 753 755 756 757 757 758 760
685 683 682 681 679 677 675 674 674 673 674 674 675 676 677 677 678 678 679 683 686 687 686 686 687 686 682 677 677 680 682 684 686 688 690 693 695 697 699 701 704 706 708 709 710 710 711 713 715 716 717 718 720 721 724 725 726 727 729 731 733 735 736 737 738 737 737 737 738 739 740 741 742 743 744 745 746 748 749 750 751 752 752 753 755
687 685 685 685 684 682 680 678 676 675 675 675 675 676 676 677 678 679 679 683 686 686 685 685 685 686 685 679 676 677 679 681 683 685 686 689 692 694 696 699 701 703 705 706 707 708 709 710 712 714 715 716 717 719 720 721 722 723 725 727 729 730 731 733 734 733 733 732 732 733 734 736 737 739 740 741 743 743 744 745 746 748 749 749 750
689 687 687 687 687 687 685 683 681 679 678 677 676 676 677 677 678 679 680 682 683 683 684 683 682 683 684 680 675 674 677 678 680 682 683 686 688 690 693 695 698 700 701 703 704 705 706 708 709 710 711 712 713 714 715 717 718 719 721 722 723 725 727 729 729 729 728 727 727 728 729 731 733 734 736 738 739 739 740 742 743 744 744 744 745
693 690 689 688 689 689 689 688 686 683 682 681 680 679 679 679 679 679 679 679 679 678 679 680 680 681 680 675 672 673 675 676 677 678 680 682 684 686 689 691 693 696 697 699 700 701 702 704 705 706 707 708 709 710 711 713 714 715 716 717 718 719 722 723 724 724 724 723 723 724 726 728 729 730 731 733 733 734 736 739 740 740 740 740 741
698 695 693 691 690 690 690 690 688 686 685 685 683 682 682 680 679 678 677 676 675 674 673 673 674 674 673 670 670 671 671 672 673 674 676 678 680 683 685 687 689 691 692 694 696 698 699 700 701 703 704 705 706 706 707 708 709 710 711 712 713 714 716 718 719 720 720 720 719 720 722 724 724 725 726 727 728 731 733 734 735 736 736 736 736
701 699 696 695 693 692 691 690 688 687 685 684 683 682 681 680 678 676 674 673 672 670 669 668 668 669 668 668 668 667 667 668 669 671 672 674 676 679 681 682 684 685 687 690 693 695 696 696 697 699 700 701 701 702 703 704 705 706 707 709 710 710 711 712 713 714 715 716 716 716 718 719 719 721 722 722 724 727 728 728 729 730 731 731 730
704 702 700 698 696 694 692 690 688 686 684 683 680 678 677 676 676 674 672 669 668 667 666 666 666 666 666 666 666 665 665 666 667 668 670 671 673 676 678 679 680 682 684 687 690 692 692 692 693 694 695 696 697 698 699 700 701 702 703 704 705 705 706 707 707 708 710 711 711 712 714 715 716 717 717 718 720 722 723 723 724 724 725 725 726
708 705 703 701 699 696 694 693 690 688 686 685 682 679 677 675 675 675 672 667 664 664 664 664 665 665 665 665 664 664 664 665 666 667 668 669 670 673 675 677 678 680 682 685 686 686 687 688 689 690 690 691 692 693 694 695 696 697 698 699 699 700 701 702 703 704 705 705 706 708 710 711 712 712 713 714 715 717 717 718 718 718 720 721 722
713 710 708 705 703 700 698 696 694 692 690 688 686 684 682 678 677 677 674 669 666 665 665 664 665 665 665 664 663 663 663 664 665 666 667 668 669 670 672 674 675 677 680 682 681 681 682 683 684 685 686 686 687 688 690 690 691 692 693 694 694 694 695 696 698 700 700 701 702 703 704 705 706 707 708 709 711 712 712 713 712 713 715 717 717
717 715 712 709 706 704 701 699 697 696 694 693 690 689 686 683 681 679 676 672 670 669 668 667 666 664 664 664 662 661 661 662 663 664 665 666 667 668 670 672 673 675 677 677 677 677 678 679 679 680 681 681 682 683 685 685 686 688 688 688 689 689 690 691 693 695 695 696 697 697 698 700 702 703 704 705 706 706 707 708 707 708 710 711 712
720 718 715 712 710 708 705 703 702 700 699 697 695 692 690 688 686 683 679 676 674 671 671 670 667 665 664 663 661 659 658 659 660 662 663 664 665 666 668 669 670 672 672 672 673 674 675 675 676 676 677 677 678 679 680 680 682 683 683 684 684 685 686 687 688 688 689 691 692 692 693 695 696 696 697 698 700 700 701 702 703 703 704 705 706
722 720 718 715 713 711 710 708 706 704 702 700 698 696 693 691 689 687 684 682 679 676 675 673 670 668 665 663 661 659 657 658 659 660 660 661 662 663 665 666 667 668 669 669 670 671 672 672 673 673 673 674 674 675 676 676 677 678 679 679 680 680 680 681 682 682 684 685 685 686 687 688 689 689 690 692 693 694 695 696 697 697 698 699 700
726 724 721 718 717 715 713 711 709 707 705 703 701 699 696 694 692 690 688 686 684 682 679 677 674 671 668 665 663 661 660 661 662 660 659 660 660 660 662 664 666 667 668 668 669 670 670 670 670 670 670 670 671 671 672 673 673 673 673 674 674 674 675 675 676 677 678 679 679 681 682 683 683 684 685 686 687 688 689 690 691 691 692 693 694
729 728 725 722 720 718 716 714 712 710 708 706 704 701 699 697 695 693 692 690 689 686 684 681 678 674 671 669 667 666 665 666 666 662 658 658 659 660 662 664 665 666 667 668 669 669 669 669 669 668 668 667 668 669 669 669 669 670 669 670 670 670 670 671 672 673 674 675 675 676 678 679 679 680 681 681 682 683 684 685 686 687 688 689 690
731 730 729 726 724 721 718 716 714 712 710 708 707 705 703 701 699 697 696 695 692 690 688 686 682 680 677 675 673 671 669 667 666 663 661 661 662 663 665 666 666 666 667 668 668 669 669 669 669 668 667 667 667 667 667 667 667 667 666 666 666 666 667 667 668 669 670 671 672 672 673 674 675 675 676 677 677 678 679 681 682 683 684 685 687
732 731 730 728 726 724 722 720 717 715 713 712 710 708 706 704 703 701 699 698 696 694 692 690 688 686 684 681 678 676 673 670 669 670 670 669 668 668 669 669 668 668 668 668 669 670 671 671 670 669 668 667 666 666 666 666 665 665 664 664 663 664 664 664 665 665 666 667 667 668 669 670 670 671 672 673 674 675 675 676 678 679 680 680 682
734 733 731 730 728 726 725 723 721 719 717 715 713 711 709 707 706 704 702 701 699 698 697 695 693 691 689 686 684 681 678 676 677 678 677 675 673 673 673 673 672 672 671 670 670 673 675 675 673 671 669 668 666 665 665 665 664 664 663 662 662 662 662 662 662 663 663 664 664 665 666 666 667 669 669 669 670 671 672 672 673 675 675 676 676
737 735 734 732 731 729 727 726 724 722 720 718 716 714 713 711 709 707 705 704 702 701 700 699 698 697 694 691 689 686 684 683 683 682 681 679 678 677 677 677 676 675 674 673 675 678 680 679 676 672 669 668 666 665 664 664 664 663 662 661 661 662 661 661 661 661 662 662 662 663 663 664 665 666 666 666 666 667 668 668 669 670 671 672 673
739 738 736 735 733 731 729 728 727 725 723 722 720 718 716 714 712 711 709 707 706 705 703 702 701 700 698 695 692 690 688 687 686 685 684 683 682 681 681 681 680 679 678 677 679 681 683 682 678 673 670 669 667 665 664 664 664 663 662 662 662 662 661 661 661 661 661 660 660 660 660 661 662 662 662 663 664 664 664 665 665 666 667 668 669
742 740 739 737 735 734 732 730 729 728 727 725 723 722 719 717 715 714 712 711 710 708 707 706 705 703 701 699 696 693 692 690 689 688 687 686 685 685 684 684 683 682 681 680 680 682 682 681 678 674 672 670 669 668 667 666 665 664 663 663 663 663 662 661 660 660 660 659 657 657 657 658 658 658 658 659 660 660 660 661 662 662 663 664 665
744 742 741 740 738 736 735 733 732 730 729 727 725 724 721 720 718 716 715 714 712 711 710 709 707 705 703 701 699 697 695 694 693 692 691 689 688 687 687 686 685 684 683 682 682 682 682 680 677 674 672 671 670 669 668 667 666 665 664 663 663 663 662 661 659 658 657 656 655 655 655 655 655 655 655 655 656 656 656 656 657 658 659 660 661
745 744 743 742 740 739 737 735 734 732 730 728 726 725 723 722 720 719 718 716 715 713 712 711 709 708 706 704 702 700 699 698 697 696 695 694 693 691 690 689 687 685 684 683 683 682 681 680 677 676 674 673 672 671 669 668 667 666 664 663 662 662 661 660 658 656 655 654 653 653 652 651 651 652 652 652 652 652 652 652 653 653 654 655 655
747 746 744 743 742 741 739 738 736 734 732 730 728 727 725 724 722 721 720 719 717 716 714 713 712 710 709 707 706 704 703 702 701 700 699 698 697 696 694 693 691 689 688 687 686 684 683 681 680 678 677 676 674 673 672 670 669 667 665 664 663 662 660 658 656 654 653 652 652 651 650 649 648 648 648 648 648 648 647 648 648 649 649 650 650
748 747 745 744 743 742 741 739 738 736 734 733 731 729 728 726 725 723 722 721 719 718 716 715 714 713 712 711 709 708 707 706 704 703 702 701 700 699 698 696 695 694 692 691 689 688 686 685 683 682 681 679 677 676 674 673 671 670 668 667 665 663 660 657 655 653 651 650 649 648 648 647 646 645 644 644 644 644 643 643 644 644 645 645 645
748 747 746 745 744 743 741 740 739 738 736 735 733 732 730 729 727 726 724 723 721 720 719 717 716 715 714 714 713 711 710 709 708 707 706 704 703 702 701 699 698 697 695 694 692 690 689 687 686 684 683 681 680 678 676 675 673 671 669 667 665 662 659 656 654 651 649 647 645 644 644 643 642 641 641 640 640 639 639 639 639 640 640 641 641
749 748 747 746 745 744 742 741 740 739 737 736 735 734 732 731 729 728 727 725 724 722 721 720 719 717 716 716 715 714 713 712 711 709 708 707 705 704 702 701 700 699 697 696 694 692 691 689 687 686 684 683 681 680 678 676 674 671 669 667 664 661 658 655 652 649 646 644 642 640 639 638 637 637 637 636 636 635 635 635 635 635 636 636 637
750 749 748 747 746 744 743 742 741 739 738 737 736 735 734 733 731 730 729 728 726 725 723 722 721 720 719 718 717 716 714 713 712 711 710 709 707 706 704 703 701 699 698 697 696 694 692 691 689 687 685 684 682 680 679 677 675 673 670 667 664 660 657 654 651 648 645 642 639 638 637 635 634 633 633 633 632 632 631 631 631 631 632 632 632
750 749 748 747 746 745 744 743 742 740 739 738 737 736 735 734 733 732 731 729 728 727 726 724 723 722 721 720 719 718 716 715 713 712 711 710 709 707 706 705 703 701 700 699 697 695 694 692 690 689 687 685 683 681 679 678 676 673 671 668 664 660 657 653 650 647 644 641 639 637 636 634 633 631 630 630 629 628 628 627 627 628 628 628 628